Погода в Чигирях

Россия / Амурская область     50°20′20″N   127°30′27″E
темп.,
°C
ветер,
м/с
пор.,
м/с
влажн.,
%
обл.,
%
осадки,
мм/ч
давл.,
гПа
погр.,
м
26 февраля, пт
пт2600:00−22з119812 0.0 103020
03:00−23зюз119814 0.0 103020
06:00−22св119799 0.0 103220
09:00−19с129699 0.1 103388
12:00−15св228699 0.0 1034386
15:00−13всв2280100 0.1 1033526
18:00−17ююв2293100 0.0 103320
21:00−19ююв2294100 0.0 103420
27 февраля, сб
сб2700:00−20ю2294100 0.0 103420
03:00−20юв2495100 0.0 103192
06:00−18юв4893100 0.0 1027338
09:00−17юв5991100 0.0 1023358
12:00−13юв61091100 0.6 1018490
15:00−9вюв51089100 0.7 1012433
18:00−5ююз4896100 2.0 1010388
21:00−6з3488100 2.5 101296
28 февраля, вс
вс2800:00−8зсз61382100 0.0 1015561
03:00−16зсз497783 0.0 1020140
06:00−19зсз34830 0.0 102354
09:00−15зсз59780 0.0 1026557
12:00−13сз57660 0.0 1027991
15:00−12сз58660 0.0 10271095
18:00−16сз347627 0.0 103030
21:00−20ссз237923 0.0 103321
1 марта, пн
пн100:00−22зсз238033 0.0 103420
03:00−21з227967 0.0 103520
06:00−21з1185100 0.0 103620
09:00−21сз598456 0.0 1037310
12:00−17сз57660 0.0 10361204
15:00−15сз476317 0.0 10351580
18:00−19сз1277100 0.0 103520
21:00−22ю127997 0.0 103520
2 марта, вт
вт200:00−22юз128396 0.0 103520
03:00−23ссз128698 0.0 103420
06:00−27с009028 0.0 103320
09:00−23св118762 0.0 103374
12:00−19в2284100 0.0 1031335
15:00−17вюв3386100 0.0 1029438
18:00−19вюв2396100 0.0 102751
21:00−20вюв12100100 0.2 102720